#timestamp,LO_Frequency,Hit,StdDev 
1662739215.7,286046993.2,N
1662739235.5,286046989.3,N
1662739255.3,286046988.3,N
1662739275.2,286046987.7,N
1662739295.0,286046987.6,N
1662739295.9,286046987.6,N
1662739315.7,286046991.4,N
1662739335.6,286046990.1,N
1662739355.4,286046994.1,N
1662739375.3,286046996.0,N
1662739395.1,286046999.6,N
1662739415.8,286046995.3,N
1662739435.7,286046995.1,N
1662739455.5,286046996.1,N
1662739475.3,286046993.6,N
1662739495.2,286046994.9,N
1662739515.0,286046999.0,N
1662739515.9,286046999.0,N
1662739535.8,286046993.8,N
1662739555.6,286046996.2,N
1662739575.4,286046999.0,N
1662739595.3,286046997.2,N
1662739615.1,286046996.7,N
1662739635.9,286046997.5,N
1662739655.7,286046996.7,N
1662739675.5,286046997.9,N
1662739695.4,286046995.6,N
1662739715.2,286046996.3,N
1662739735.0,286046995.0,N
1662739735.9,286046995.0,N
1662739755.8,286046995.8,N
1662739775.6,286046999.1,N
1662739795.5,286047005.7,N
1662739815.3,286047003.8,N
1662739835.1,286047003.1,N
1662739855.9,286047005.9,N
1662739875.7,286047007.6,N
1662739895.5,286047009.9,N
1662739915.4,286047010.2,N
1662739935.2,286047012.0,N
1662739955.0,286047009.7,N
1662739956.0,286047009.7,N
1662739975.8,286047010.1,N
1662739995.6,286047009.7,N
1662740015.5,286047013.7,N
1662740035.3,286047014.2,N
1662740055.1,286047014.7,N
1662740075.9,286047016.1,N
1662740095.7,286047020.4,N
1662740115.6,286047020.2,N
1662740135.4,286047019.5,N
1662740155.2,286047021.9,N
1662740175.1,286047019.1,N
1662740176.0,286047019.1,N
1662740195.8,286047017.9,N
1662740215.6,286047017.8,N
1662740235.5,286047018.7,N
1662740255.3,286047014.9,N
1662740275.2,286047013.3,N
1662740295.9,286047014.3,N
1662740315.7,286047012.3,N
1662740335.6,286047006.6,N
1662740355.4,286047004.8,N
1662740375.2,286047007.1,N
1662740395.1,286047010.0,N
1662740396.0,286047010.0,N
1662740415.8,286047009.8,N
1662740435.7,286047010.2,N
1662740455.5,286047005.0,N
1662740475.3,286047005.7,N
1662740495.2,286047003.4,N
1662740515.9,286047006.4,N
1662740535.7,286047009.2,N
1662740555.6,286047007.2,N
1662740575.4,286047004.5,N
1662740595.3,286047007.6,N
1662740615.1,286047009.2,N
1662740616.0,286047009.2,N
1662740635.8,286047011.9,N
1662740655.7,286047011.3,N
1662740675.5,286047013.3,N
1662740695.3,286047007.7,N
1662740715.2,286047008.3,N
1662740735.0,286047009.0,N
1662740735.9,286047009.0,N
1662740755.8,286047007.1,N
1662740775.6,286047007.2,N
1662740795.4,286047009.0,Y
1662740815.3,286047002.0,P
1662740835.1,286047003.9,N
1662740855.8,286047005.2,N
1662740875.7,286047005.8,N
1662740895.5,286047003.0,N
1662740915.4,286047005.3,N
1662740935.2,286047007.2,Y
1662740955.0,286046998.4,P
1662740955.9,286046998.4,N
1662740975.8,286046999.5,N
1662740995.6,286046997.1,N
1662741015.4,286046997.8,N
1662741035.3,286046999.2,N
1662741055.1,286046996.1,N
1662741075.9,286046992.0,Y
1662741095.7,286046996.4,P
1662741115.5,286046994.9,P
1662741135.4,286046996.8,N
1662741155.2,286046997.6,N
1662741175.0,286046992.2,Y
1662741176.0,286046992.2,P
1662741195.8,286046994.9,N
1662741215.6,286047011.9,P
1662741235.5,286046990.5,N
1662741255.3,286046993.4,N
1662741275.2,286046997.8,N
1662741295.9,286046998.6,N
1662741315.7,286047001.8,N
1662741335.6,286047000.8,N
1662741355.4,286046998.0,N
1662741375.3,286046997.7,N
1662741395.1,286047001.2,N
1662741396.0,286047001.2,N
1662741415.8,286047004.3,N
1662741435.7,286047007.2,N
1662741455.5,286047005.8,N
1662741475.3,286047004.3,N
1662741495.2,286047003.8,N
1662741515.0,286047003.5,N
1662741515.9,286047003.5,N
1662741535.8,286047005.5,N
1662741555.6,286047005.8,N
1662741575.4,286047002.1,N
1662741595.3,286047003.9,N
1662741615.1,286047004.3,N
1662741635.8,286047003.6,N
1662741655.7,286047005.3,N
1662741675.5,286047002.1,N
1662741695.4,286047002.2,N
1662741715.2,286047002.0,N
1662741735.0,286047001.9,N
1662741735.9,286047001.9,N
1662741755.8,286047000.2,N
1662741775.6,286047001.9,N
1662741795.4,286047005.0,N
1662741815.3,286047011.6,Y
1662741835.1,286047015.1,P
1662741855.9,286047016.4,N
1662741875.7,286047017.0,N
1662741895.5,286047016.9,N
1662741915.4,286047020.4,Y
1662741935.2,286047006.2,P
1662741955.1,286047006.7,N
1662741956.0,286047006.7,N
1662741975.8,286047008.2,N
1662741995.6,286047007.3,N
1662742015.5,286047003.2,N
1662742035.3,286047001.5,N
1662742055.1,286046998.9,N
1662742075.9,286047001.6,N
1662742095.7,286047001.6,N
1662742115.6,286046999.8,N
1662742135.4,286047000.4,N
1662742155.2,286047001.1,N
1662742175.1,286046997.6,N
1662742176.0,286046997.6,N
1662742195.8,286046997.4,N
1662742215.6,286046995.8,N
1662742235.5,286046997.4,N
1662742255.3,286047000.2,N
1662742275.2,286047004.2,N
1662742295.9,286047004.2,N
1662742315.7,286047003.6,N
1662742335.6,286046998.8,N
1662742355.4,286046997.4,N
1662742375.2,286046993.6,N
1662742395.1,286046995.4,N
1662742396.0,286046995.4,N
1662742415.8,286046993.9,N
1662742435.6,286046995.3,N
1662742455.5,286046993.4,N
1662742475.3,286046994.4,N
1662742495.2,286046994.5,N
1662742515.9,286046993.3,N
1662742535.7,286046999.3,N
1662742555.6,286047000.6,N
1662742575.4,286047002.8,N
1662742595.2,286047004.2,N
1662742615.1,286047007.6,N
1662742616.0,286047007.6,N
1662742635.8,286047003.0,N
1662742655.7,286047001.7,N
1662742675.5,286046999.3,N
1662742695.3,286047000.1,N
1662742715.2,286047001.9,N
1662742735.0,286046998.1,N
1662742735.9,286046998.1,N
1662742755.7,286046996.7,N
1662742775.6,286046997.3,N
1662742795.4,286046996.0,N
